This is the latest recevied weather packets stored in our database for station/object PU5BHV. If no packets are shown the sender has not sent any weather packets the latest 10 day(s).
| Time | Temp. | Humidity | Pressure | Rain* | Wind** | Luminosity | Snow |
|---|---|---|---|---|---|---|---|
| 1778097342 | 27.22° C | 82% | 1016 hPa | 0 mm | - | 29 W/m² | - |
| 1778097038 | 27.78° C | 80% | 1015.8 hPa | 0 mm | - | 32 W/m² | - |
| 1778096736 | 27.78° C | 78% | 1015.9 hPa | 0 mm | - | 56 W/m² | - |
| 1778096432 | 28.33° C | 79% | 1016 hPa | 0 mm | - | 68 W/m² | - |
| 1778096129 | 28.33° C | 78% | 1015.8 hPa | 0 mm | - | 80 W/m² | - |
| 1778095827 | 28.33° C | 77% | 1015.9 hPa | 0 mm | - | 92 W/m² | - |
| 1778095523 | 28.89° C | 77% | 1015.9 hPa | 0 mm | - | 104 W/m² | - |
| 1778095219 | 28.89° C | 77% | 1016 hPa | 0 mm | - | 119 W/m² | - |
| 1778094916 | 28.89° C | 77% | 1016.1 hPa | 0 mm | - | 148 W/m² | - |
| 1778094612 | 28.33° C | 77% | 1016 hPa | 0 mm | - | 160 W/m² | - |
| 1778094310 | 28.89° C | 76% | 1016.1 hPa | 0 mm | - | 160 W/m² | - |
| 1778094006 | 28.89° C | 74% | 1016.2 hPa | 0 mm | - | 180 W/m² | - |
| 1778093704 | 29.44° C | 73% | 1016 hPa | 0 mm | - | 188 W/m² | - |
| 1778093400 | 29.44° C | 72% | 1016.1 hPa | 0 mm | - | 215 W/m² | - |
| 1778093098 | 30° C | 71% | 1016.1 hPa | 0 mm | - | 185 W/m² | - |
| 1778092794 | 30° C | 71% | 1016.2 hPa | 0 mm | - | 231 W/m² | - |
| 1778092490 | 30.56° C | 70% | 1016.2 hPa | 0 mm | - | 242 W/m² | - |
| 1778092187 | 30° C | 70% | 1016.2 hPa | 0 mm | - | 277 W/m² | - |
| 1778091884 | 30° C | 72% | 1016.3 hPa | 0 mm | - | 292 W/m² | - |
| 1778091581 | 28.89° C | 74% | 1016.3 hPa | 0 mm | - | 330 W/m² | - |
| 1778091279 | 27.78° C | 78% | 1016.2 hPa | 0 mm | - | 97 W/m² | - |
| 1778090976 | 29.44° C | 74% | 1016.5 hPa | 0 mm | - | 87 W/m² | - |
| 1778090672 | 30.56° C | 66% | 1016.5 hPa | 0 mm | - | 114 W/m² | - |
| 1778090369 | 30.56° C | 66% | 1016.6 hPa | 0 mm | - | 369 W/m² | - |
| 1778090066 | 30.56° C | 67% | 1016.7 hPa | 0 mm | - | 364 W/m² | - |
* Rain latest hour (hover to see other rain measurements)
** Current wind speed in m/s (hover to see current wind gust speed)